www.pogodaiklimat.ru
Время
(UTC), дата
07 29.11
08 29.11
09 29.11
10 29.11
11 29.11
12 29.11
13 29.11
14 29.11
15 29.11
16 29.11
17 29.11
18 29.11
19 29.11
20 29.11
21 29.11
22 29.11
23 29.11
00 30.11
01 30.11
02 30.11
03 30.11
04 30.11
05 30.11
06 30.11
07 30.11
08 30.11
09 30.11
10 30.11
11 30.11
12 30.11
13 30.11
14 30.11
15 30.11
16 30.11
17 30.11
18 30.11
19 30.11
20 30.11
21 30.11
22 30.11
23 30.11
00 1.12
01 1.12
02 1.12
03 1.12
04 1.12
05 1.12
06 1.12
07 1.12
08 1.12
09 1.12
10 1.12
11 1.12
12 1.12
13 1.12
14 1.12
15 1.12
16 1.12
17 1.12
18 1.12
19 1.12
20 1.12
21 1.12
22 1.12
23 1.12
00 2.12
01 2.12
02 2.12
03 2.12
04 2.12
05 2.12
06 2.12
07 2.12
08 2.12
09 2.12
10 2.12
11 2.12
12 2.12
13 2.12
14 2.12
15 2.12
16 2.12
17 2.12
18 2.12
19 2.12
20 2.12
21 2.12
22 2.12
23 2.12
00 3.12
01 3.12
02 3.12
03 3.12
04 3.12
05 3.12
06 3.12
07 3.12
08 3.12
09 3.12
10 3.12
11 3.12
12 3.12
13 3.12
14 3.12
15 3.12
16 3.12
17 3.12
18 3.12
19 3.12
20 3.12
21 3.12
22 3.12
23 3.12
00 4.12
01 4.12
02 4.12
03 4.12
04 4.12
05 4.12
06 4.12
07 4.12
08 4.12
09 4.12
10 4.12
11 4.12
12 4.12
13 4.12
14 4.12
15 4.12
16 4.12
17 4.12
18 4.12
19 4.12
20 4.12
21 4.12
22 4.12
23 4.12
00 5.12
01 5.12
02 5.12
03 5.12
04 5.12
05 5.12
06 5.12
07 5.12
08 5.12
09 5.12
10 5.12
11 5.12
12 5.12
13 5.12
14 5.12
15 5.12
16 5.12
17 5.12
18 5.12
19 5.12
20 5.12
21 5.12
22 5.12
23 5.12
00 6.12
01 6.12
02 6.12
03 6.12
05 6.12
06 6.12
07 6.12
Ветер
(напр.,м/с)
Видим. Явления Облачность Т
(С)
Тd
(С)
f
(%)
Тe
(С)
Тes
(С)
Комфортность P
(гПа)
Po
(гПа)
Тmin
(С)
Tmax
(С)
R
(мм)
R24
(мм)
S
(см)
СЗ 2 8000 м дымка ясно -1.0 -1.5 96 -4 -4 прохладно 1014.3 1005.1
С 1 10 км местами туман поземный 1/1 1500 м
[Sc]
-1.4 -1.8 97 -4 -4 прохладно 1015.2 1006.1
ЮЗ 2 20 км местами туман поземный 3/1 1500 м
[Sc Ac trans]
-0.3 -0.7 97 -4 -4 прохладно 1016.4 1007.3
З 1 20 км 1/1 1500 м
[Sc]
+1.4 +1.1 98 +1 +1 по сезону 1017.2 1008.1
СЗ 2 20 км 1/1 1080 м
[Sc]
+3.4 +2.1 91 +1 +2 по сезону 1017.9 1008.9
С 3 25 км 1/1 1350 м
[Sc]
+4.2 +2.3 87 +1 +2 по сезону 1018.2 1009.2 2
С 2 26 км 1/1 480 м
[Cu Sc]
+5.0 +2.3 83 +3 +4 по сезону 1018.6 1009.7
СЗ 1 25 км 1/1 540 м
[Cu Sc]
+5.4 +2.8 83 +4 +5 по сезону 1018.8 1009.9
С 1 25 км 1/1 540 м
[Cu Sc]
+5.3 +1.7 78 +5 +6 тепло 1019.2 1010.2
штиль 0 20 км 1/1 1500 м
[Sc]
+4.5 +1.5 81 +4 +4 по сезону 1019.9 1010.9
штиль 0 15 км местами туман поземный ясно +1.4 +0.3 92 0 0 по сезону 1020.7 1011.6
СЗ 1 6000 м в посл. час туман н/о 0.0 -0.7 95 -1 -1 по сезону 1021.2 1012.0 +5.9 0.2
С 1 7000 м в посл. час туман н/о -0.5 -0.9 97 -3 -3 прохладно 1021.4 1012.3
СВ 1 1000 м в посл. час туман н/о -1.5 -2.0 96 -2 -2 по сезону 1021.7 1012.5
штиль 0 100 м туман н/о -2.7 -3.1 97 -4 -4 прохладно 1021.8 1012.6
СВ 1 100 м туман н/о -2.8 -3.1 98 -4 -4 прохладно 1022.1 1012.8
З 2 100 м туман н/о -1.6 -1.8 99 -5 -5 холодно 1022.4 1013.1
ЮВ 1 100 м туман н/о -1.8 -2.1 98 -3 -3 прохладно 1022.4 1013.2 78.0
ЮВ 1 200 м туман н/о -2.6 -2.9 98 -4 -4 прохладно 1022.4 1013.2
С 1 100 м туман н/о -2.7 -3.0 98 -5 -5 холодно 1022.3 1013.0
СВ 1 1800 м в посл. час туман н/о -1.1 -1.4 98 -2 -2 по сезону 1022.2 1013.0 70.9
В 2 7000 м дымка н/о -0.8 -0.9 99 -5 -5 холодно 1022.0 1012.8
В 1 6000 м дымка н/о -0.9 -1.0 99 -2 -2 по сезону 1022.2 1013.0
В 1 5000 м дымка н/о +0.3 +0.2 99 -2 -2 по сезону 1021.9 1012.7 -3.2 0.2
В 2 5000 м дымка н/о +0.4 +0.2 99 -4 -4 прохладно 1022.0 1012.9
В 4 4200 м дымка н/о +0.3 +0.1 99 -5 -5 холодно 1021.9 1012.8
В 3 1900 м дымка н/о +0.2 0.0 99 -4 -4 прохладно 1022.4 1013.2
В 4 800 м туман н/о +0.6 +0.4 99 -5 -5 холодно 1022.6 1013.5
В 4 4800 м в посл. час туман н/о +0.8 +0.7 99 -5 -5 холодно 1022.9 1013.8
В 3 5000 м дымка н/о +1.3 +1.0 98 -3 -3 прохладно 1022.6 1013.5 0.2
В 4 9000 м дымка н/о +2.0 +1.4 96 -3 -3 прохладно 1022.2 1013.1
СВ 3 6000 м дымка н/о +1.7 +1.2 96 -3 -3 прохладно 1022.0 1012.9
СВ 2 10 км дым н/о +1.9 +1.0 94 -2 -2 по сезону 1021.9 1012.8
В 3 5000 м дымка н/о +1.4 +0.9 96 -3 -3 прохладно 1022.1 1013.0
В 3 4900 м дымка н/о +1.2 +0.7 96 -4 -4 прохладно 1022.3 1013.2
В 4 5000 м дымка н/о +1.3 +0.9 97 -4 -4 прохладно 1022.6 1013.5 +2.2 0.2
В 4 4500 м дымка н/о +1.2 +0.8 97 -4 -4 прохладно 1022.8 1013.7
В 4 5000 м дымка н/о +1.3 +1.0 98 -4 -4 прохладно 1023.0 1013.9
В 3 4800 м дымка н/о +2.0 +1.6 97 -3 -3 прохладно 1023.5 1014.4
СВ 3 5000 м дымка н/о +2.3 +1.9 97 -2 -2 по сезону 1023.6 1014.5
С 1 5000 м дымка н/о +2.5 +2.0 96 +2 +2 по сезону 1024.1 1015.0
С 2 4700 м дымка н/о +2.0 +1.5 96 -1 -1 по сезону 1024.2 1015.1
СЗ 1 5000 м дымка н/о +1.5 +1.0 96 -1 -1 по сезону 1023.8 1014.7
СЗ 2 5000 м дымка н/о +1.3 +0.8 96 -2 -2 по сезону 1023.7 1014.6
С 3 7000 м в посл. час дождь н/о +0.8 +0.3 96 -4 -4 прохладно 1023.8 1014.7
СЗ 4 5000 м дымка н/о +0.8 +0.4 97 -5 -5 холодно 1024.0 1014.9
С 4 5000 м дымка н/о +0.9 +0.3 96 -4 -4 прохладно 1024.1 1014.9
СЗ 4 4600 м дымка н/о 0.0 -0.6 96 -5 -5 холодно 1024.2 1015.0 -0.2 0.0 0.2
СЗ 4 4800 м дымка н/о -0.6 -0.9 98 -7 -7 холодно 1025.2 1016.0
С 3 4700 м дымка н/о -0.5 -0.9 97 -6 -6 холодно 1025.9 1016.7
СЗ 3 6000 м дымка н/о +0.1 -0.3 97 -5 -5 холодно 1026.4 1017.2
СЗ 4 9000 м дымка н/о +0.7 -0.1 94 -4 -4 прохладно 1027.0 1017.9
С 3 14 км н/о +2.4 +0.7 89 -2 -2 по сезону 1027.5 1018.4
СЗ 4 11 км н/о +3.0 +1.5 90 -2 -2 по сезону 1027.1 1018.0
С 3 20 км н/о +3.8 +1.4 84 0 0 по сезону 1027.2 1018.1
СЗ 4 24 км н/о +4.8 +1.4 79 +1 +1 по сезону 1027.4 1018.3
СЗ 5 26 км н/о +4.1 +0.4 77 -1 -1 по сезону 1027.8 1018.8
СЗ 4 17 км н/о +2.6 +0.6 87 -2 -2 по сезону 1028.6 1019.5
СЗ 3 20 км н/о +1.8 +0.1 88 -2 -2 по сезону 1028.9 1019.7
СЗ 2 19 км н/о +1.0 -0.4 90 -3 -3 прохладно 1029.0 1019.8 +4.8
СЗ 1 14 км н/о -0.6 -1.7 92 -3 -3 прохладно 1029.6 1020.4
СЗ 1 10 км н/о -1.4 -2.2 94 -4 -4 прохладно 1030.0 1020.7
С 1 9000 м дымка н/о -1.9 -2.6 95 -4 -4 прохладно 1030.6 1021.3
ЮВ 1 11 км н/о -0.8 -1.3 96 -2 -2 по сезону 1030.5 1021.2
СЗ 2 15 км н/о -1.2 -1.8 96 -5 -5 холодно 1030.9 1021.6
С 2 15 км н/о -0.4 -1.2 94 -4 -4 прохладно 1031.4 1022.2
СЗ 2 13 км н/о -1.9 -2.7 94 -6 -6 холодно 1031.7 1022.4
СЗ 3 19 км н/о -1.8 -2.7 94 -7 -7 холодно 1031.9 1022.6
З 2 15 км н/о -2.9 -3.8 93 -6 -6 холодно 1032.0 1022.7
ЮЗ 1 21 км н/о -1.7 -2.5 94 -3 -3 прохладно 1031.9 1022.6
ЮЗ 3 19 км н/о -2.5 -3.3 94 -7 -7 холодно 1031.8 1022.5
З 2 24 км н/о -2.2 -3.1 94 -6 -6 холодно 1032.2 1022.9 -2.9
ЮЗ 2 20 км 8/0
[Ac As]
-1.4 -2.5 92 -5 -5 холодно 1031.8 1022.5
ЮЗ 2 40 км 8/0
[Ac trans Ci sp]
-1.5 -2.3 94 -6 -6 холодно 1032.2 1022.9
ЮЗ 1 40 км 9/0
[Ac As]
0.0 -1.0 93 -2 -2 по сезону 1032.2 1023.0
З 4 40 км 8/1 900 м
[Sc Ac As Ci sp]
+0.8 -0.3 92 -4 -4 прохладно 1032.4 1023.2
З 5 50 км 8/0
[Ac As]
+2.9 +1.0 87 -3 -2 прохладно 1032.5 1023.4
З 5 50 км 8/0
[Ac As]
+4.2 +2.3 87 -1 -1 по сезону 1032.2 1023.1 0.2
З 4 50 км 9/1 1200 м
[Sc Ac As]
+4.7 +2.7 87 0 +1 по сезону 1032.1 1023.0
З 3 50 км 8/3 840 м
[Sc Ac As]
+5.4 +2.9 84 +2 +2 по сезону 1031.8 1022.7
З 3 50 км 9/1 750 м
[Sc Ac As]
+5.1 +3.0 86 +2 +2 по сезону 1031.5 1022.5
З 4 50 км 9/3 750 м
[Sc Ac As]
+5.0 +2.9 86 +1 +1 по сезону 1031.6 1022.5
З 5 30 км 9/4 700 м
[Sc Ac As]
+4.7 +2.7 87 0 0 по сезону 1031.3 1022.2
З 3 25 км н/о +4.1 +2.6 90 0 0 по сезону 1031.6 1022.5 +5.6 0.2
СЗ 1 22 км н/о +3.5 +2.0 90 +3 +3 по сезону 1031.5 1022.4
СВ 1 21 км н/о +3.4 +2.2 92 +3 +3 по сезону 1031.5 1022.4
ЮЗ 2 15 км н/о +3.6 +2.3 91 +1 +1 по сезону 1031.4 1022.2
З 2 14 км н/о +3.7 +2.7 93 +1 +1 по сезону 1031.0 1021.9
З 2 22 км н/о +4.0 +3.1 94 +1 +1 по сезону 1030.9 1021.8
З 2 18 км н/о +4.4 +3.3 93 +1 +1 по сезону 1030.7 1021.6
Ю 1 26 км н/о +5.2 +3.5 89 +4 +4 по сезону 1030.1 1021.1
ЮВ 1 22 км н/о +5.7 +3.9 88 +4 +4 по сезону 1029.7 1020.7
В 1 17 км н/о +3.8 +2.7 93 +3 +3 по сезону 1029.3 1020.2
ЮЗ 2 24 км н/о +4.6 +3.2 91 +2 +2 по сезону 1028.5 1019.4
ЮЗ 1 7000 м дым н/о +2.0 +1.1 94 0 0 по сезону 1028.2 1019.1
С 1 15 км местами туман поземный ясно +1.3 +0.8 96 +1 +1 по сезону 1028.1 1018.9 +0.9 0.2
В 1 20 км в посл. час туман ясно +1.0 +0.6 97 -1 -1 по сезону 1028.1 1018.9
ЮЗ 1 200 м переохл. туман 3/0
[Ac trans]
-0.9 -1.3 97 -3 -3 прохладно 1027.9 1018.6
штиль 0 400 м туман местами 1/1 1500 м
[Sc Ac trans]
-0.7 -0.9 99 -2 -2 по сезону 1027.9 1018.7
ЮВ 1 30 км в посл. час туман 3/1 1200 м
[Sc Ac trans]
+4.4 +4.3 99 +4 +5 по сезону 1027.6 1018.5
Ю 2 30 км 1/0
[Ac trans]
+7.4 +5.4 87 +5 +6 тепло 1027.1 1018.1
ЮЗ 4 40 км {туман} 1/0
[Ci fib]
+7.8 +4.3 79 +5 +6 тепло 1025.8 1016.8
ЮЗ 4 40 км 1/1 540 м
[Cu hum Ci fib]
+8.4 +4.3 75 +6 +6 тепло 1024.8 1015.9
ЮЗ 3 40 км 1/1 540 м
[Cu hum]
+8.7 +4.8 76 +6 +7 тепло 1023.9 1015.0
ЮЗ 4 40 км 1/1 600 м
[Cu hum]
+8.3 +4.3 76 +5 +6 тепло 1023.7 1014.8
ЮЗ 2 35 км 1/1 600 м
[Cu Sc]
+5.3 +2.2 80 +3 +3 по сезону 1024.0 1015.0
ЮЗ 2 30 км 1/1 1500 м
[Sc]
+2.7 +0.3 84 0 0 по сезону 1023.9 1014.8
ЮЗ 2 18 км н/о +5.1 +3.3 88 +2 +2 по сезону 1023.6 1014.6 +8.9
Ю 1 10 км н/о +2.7 +0.2 84 +2 +2 по сезону 1023.2 1014.1
Ю 1 15 км н/о +3.3 +2.7 96 +3 +3 по сезону 1022.8 1013.8
ЮЗ 1 1300 м в посл. час туман н/о +0.8 +0.1 95 -1 -1 по сезону 1022.6 1013.5
В 1 6000 м дымка н/о +1.1 +0.6 96 -1 -1 по сезону 1022.2 1013.1
В 1 4500 м дымка н/о +0.2 -0.3 96 -1 -1 по сезону 1022.0 1012.9
В 1 6000 м дымка н/о +0.4 0.0 97 -0 -0 по сезону 1021.7 1012.5
ЮЗ 1 20 км н/о +2.1 +1.7 97 0 0 по сезону 1021.2 1012.2
Ю 1 14 км н/о +2.0 +1.4 96 0 0 по сезону 1020.8 1011.7
ЮЗ 1 10 км н/о +0.5 -1.0 90 -0 -0 по сезону 1020.4 1011.2
В 1 10 км дымка н/о -0.2 -0.8 96 -1 -1 по сезону 1019.8 1010.7
СЗ 2 9000 м дым н/о +2.4 +1.2 92 -0 -0 по сезону 1019.6 1010.6
СВ 1 10 км 1/1 1500 м
[Sc]
+1.9 +0.7 92 0 0 по сезону 1019.2 1010.2 -1.5
ЮВ 1 8000 м мгла ясно +1.5 +0.6 94 -1 -1 по сезону 1019.1 1010.1
Ю 3 8000 м мгла 1/1 600 м
[Sc]
+2.2 +1.3 94 -2 -2 по сезону 1019.2 1010.2
ЮВ 3 10 км 1/1 750 м
[Sc]
+2.3 +1.3 93 -2 -2 по сезону 1019.6 1010.5
ЮВ 2 15 км 1/1 750 м
[Sc]
+3.8 +1.8 87 +1 +2 по сезону 1019.9 1010.9
Ю 3 25 км 1/1 750 м
[Sc]
+5.3 +2.7 83 +2 +3 по сезону 1019.6 1010.6
Ю 4 20 км 1/1 750 м
[Sc]
+6.2 +3.1 81 +3 +4 по сезону 1018.7 1009.7
ЮВ 4 25 км 1/1 750 м
[Sc]
+7.0 +3.4 78 +4 +5 по сезону 1018.5 1009.6
ЮВ 4 20 км 1/1 600 м
[Cu hum]
+6.8 +3.3 78 +3 +4 по сезону 1018.2 1009.3
Ю 4 18 км 3/3 800 м
[Sc]
+6.1 +3.0 80 +3 +3 по сезону 1018.4 1009.5
Ю 4 12 км 1/1 840 м
[Sc]
+5.3 +2.8 84 +1 +1 по сезону 1018.2 1009.3
В 2 12 км 3/3 900 м
[Sc]
+4.0 +2.2 88 +2 +2 по сезону 1018.9 1009.9
ЮЗ 1 10 км н/о +3.1 +1.1 87 +1 +1 по сезону 1019.0 1010.0 +7.2
ЮВ 1 8000 м дым н/о +2.7 +1.0 89 +2 +2 по сезону 1019.1 1010.0
Ю 1 14 км н/о +3.3 +2.1 92 +2 +2 по сезону 1019.1 1010.1
ЮЗ 3 15 км н/о +3.9 +3.1 95 0 0 по сезону 1019.4 1010.4
ЮЗ 3 20 км н/о +7.1 +5.0 86 +4 +4 по сезону 1019.3 1010.4
ЮЗ 3 15 км н/о +6.8 +4.9 88 +4 +4 по сезону 1019.5 1010.6
Ю 3 15 км н/о +7.0 +5.4 90 +4 +4 по сезону 1019.5 1010.6
ЮЗ 2 11 км н/о +5.7 +4.5 92 +3 +3 по сезону 1019.0 1010.1
ЮЗ 3 10 км в посл. час туман н/о +4.6 +4.2 97 +1 +1 по сезону 1019.2 1010.2
ЮЗ 1 300 м туман н/о +4.3 +3.9 97 +3 +3 по сезону 1019.6 1010.6
ЮЗ 2 3400 м в посл. час туман н/о +3.4 +3.2 99 +1 +1 по сезону 1018.9 1009.9
З 3 13 км в посл. час туман н/о +2.2 +2.0 99 -2 -2 по сезону 1018.7 1009.6
Ю 1 20 км в посл. час туман 8/5 1080 м
[Sc Ci sp]
+4.6 +4.1 97 +3 +3 по сезону 1018.5 1009.5 +0.5 0.2 0.2
ЮЗ 3 20 км 6/4 1000 м
[Sc Ci fib]
+4.8 +3.6 92 +1 +1 по сезону 1018.2 1009.3
ЮЗ 2 20 км 9/4 750 м
[Sc Cs]
+5.3 +3.5 88 +3 +3 по сезону 1018.0 1009.1
Ю 5 30 км 9/4 360 м
[Sc Ac trans Cs]
+6.1 +3.7 85 +2 +2 по сезону 1017.4 1008.4
Ю 5 30 км 9/6 360 м
[Cu Sc Ci sp]
+6.2 +4.1 86 +2 +2 по сезону 1016.9 1008.0
ЮЗ 8 30 км 9/4 450 м
[Cu Sc Ac As Ci fib]
+8.6 +5.2 79 +4 +4 по сезону 1016.7 1007.8
ЮЗ 9
{14}
30 км 9/6 660 м
[Sc Ac As]
+9.0 +5.1 77 +5 +5 тепло 1015.2 1006.4
ЮЗ 7
{13}
25 км слаб. дождь 10/9 700 м
[Sc As op]
+9.1 +5.5 78 +5 +5 тепло 1013.9 1005.1
ЮЗ 10
{15}
30 км в посл. час дождь 9/5 660 м
[Sc As trans]
+9.5 +5.6 77 +5 +5 тепло 1012.4 1003.6
ЮЗ 8
{15}
30 км {дождь} 10/8 840 м
[Sc As trans]
+9.6 +5.4 75 +5 +5 тепло 1011.5 1002.7
ЮЗ 10
{14}
30 км 9/9 600 м
[Sc]
+9.8 +6.2 78 +5 +5 тепло 1010.5 1001.8
ЮЗ 10
{14}
30 км 9/9 570 м
[Sc]
+10.2 +7.0 81 +6 +6 тепло 1009.6 1000.9
ЮЗ 9
{14}
22 км н/о +10.7 +7.5 81 +7 +7 тепло 1009.0 1000.3 +10.8 0.0
ЮЗ 9
{15}
24 км н/о +11.2 +7.7 79 +7 +7 тепло 1008.3 999.7
З 14
{18}
25 км н/о +11.3 +8.3 82 +7 +7 тепло 1007.4 998.8
ЮЗ 15
{21}
23 км н/о +11.3 +8.6 83 +7 +7 тепло 1006.5 997.9
ЮЗ 12-17
{19}
27 км в посл. час дождь н/о +11.6 +9.0 84 +7 +7 тепло 1006.8 998.2
ЮЗ 9
{16}
23 км н/о +11.3 +9.4 88 +8 +8 тепло 1007.1 998.4
ЮЗ 8
{13}
3600 м ливневой дождь н/о +10.7 +9.8 94 +7 +7 тепло 1006.7 998.0 0.2
ЮЗ 8 10 км в посл. час дождь н/о +10.7 +10.0 95 +7 +7 тепло 1005.7 997.0
ЮЗ 8 19 км в посл. час дождь н/о +10.7 +10.0 95 +7 +7 тепло 1004.5 995.8
ЮЗ 8 20 км н/о +10.9 +10.1 95 +7 +7 тепло 1004.0 995.4
ЮЗ 6 5000 м ливневой дождь н/о +11.1 +10.3 95 +8 +8 тепло 1002.9 994.2
ЮЗ 6 30 км в посл. час дождь 10/6 300 м
[Sc Ac As]
+11.1 +10.4 95 +8 +8 тепло 1001.9 993.3 +10.6 3 3.0
ЮЗ 6 8000 м дождь {морось} 9/9 360 м
[Sc]
+11.3 +10.2 93 +8 +8 тепло 1001.5 992.8
Местоположение метеостанции Шобери (Великобритания): широта 52.80 долгота -2.67 высота над уровнем моря 72 м.
В архиве по умолчанию представлена погода в Шобери за последнюю неделю. Архивные данные за месяц целиком и за предыдущие месяцы, начиная с января 2011 года, Вы можете получить, выбрав интересующий диапазон дат из раскрывающегося списка и нажав кнопку "Найти!".
*Определитесь, кто Вы:
Внимание! Время в таблицах - всемирное. Для получения местного времени необходимо прибавить поправку, которая равна 0 ч.
Смотрите также архив погоды в соседних городах и на ближайших метеорологических станциях:
Партнеры нашего сайта:      
Пояснения к столбцам:
  • Ветер - указаны скорость ветра в м/с - средняя за 10 мин, порывы в срок и между сроками (в фигурных скобках) и направление, откуда дует ветер: С - северный,
  • СВ - северо-восточный, В - восточный, ЮВ - юго-восточный, Ю - южный, ЮЗ - юго-западный, З - западный, СЗ - северо-западный.
  • Видимость - горизонтальная дальность видимости в метрах или километрах. При видимости от 1 до 10 км при отсутствии осадков обычно наблюдается дымка, при ухудшении видимости до 1 км и менее - туман. В сухую погоду видимость может ухудшаться дымом, пылью или мглою.
  • Явления - указаны атмосферные явления, наблюдавшиеся в срок или в последний час перед сроком; фигурными скобками обозначены явления, наблюдавшиеся между сроками (за 1-3 часа до срока); квадратными скобками обозначены град или гололедные отложения с указанием их диаметра в мм.
  • Облачность - указаны через наклонную черту общая и нижняя облачность в баллах и высота нижней границы облаков в метрах; квадратными скобками обозначены формы облаков: Ci - перистые, Cs - перисто-слоистые, Cc - перисто-кучевые, Ac - высококучевые, As - высокослоистые, Sc - слоисто-кучевые, Ns - слоисто-дождевые, Cu - кучевые, Cb - кучево-дождевые. Подробнее классификацию облаков см. в Атласе облаков (PDF).
  • T - Температура воздуха - температура, измеренная на высоте 2 м над землей.
  • Td - Температура точки росы - температура, при понижении до которой содержащийся в воздухе водяной пар достигнет насыщения.
  • f - Относительная влажность воздуха - влажноcть воздуха, измеренная на высоте 2 м над землей.
  • Te - Эффективная температура - температура, которую ощущает одетый по сезону человек в тени. Характеристика душности погоды. При расчете учитывается влияние влажности воздуха и скорости ветра на теплоощущения человека.
  • Tes - Эффективная температура на солнце - температура, которую ощущает человек, с поправкой на солнечный нагрев. Характеристика знойности погоды. Зависит от высоты солнца над горизонтом, облачности и скорости ветра. Ночью, в пасмурную погоду, а также при ветре 12 м/с и более поправка равна нулю.
  • P - Атмосферное давление - приведенное к уровню моря атмосферное давление.
  • Po - Атмосферное давление - измеренное на уровне метеостанции атмосферное давление.
  • Tmin - Минимальная температура - минимум температуры воздуха на высоте 2 м над землей.
  • Tmax - Максимальная температура - максимум температуры воздуха на высоте 2 м над землей.
  • R - Количество осадков - Количество выпавших осадков за период времени, мм. При наведении курсора мыши на число - период времени, за который выпало указанное количество осадков.
  • R24 - Количество осадков - Количество выпавших осадков за 24 часа, мм.
  • S - Снежный покров - Высота снежного покрова, см. При наведении курсора мыши на число - состояние снежного покрова и степень покрытия местности в баллах.